Regional Weather Roundup
Issued by NWS

Home | Current Version | Previous Version | Text Only | Print | Product List | Glossary Off
Versions: 1 2 3 4 5 6 7 8 9 10 11 12 13 14 15 16 17 18 19 20 21 22 23 24 25 26 27 28 29 30 31 32 33 34 35 36 37 38 39 40 41 42 43 44 45 46 47 48 49 50

000
ASUS45 KCYS 201010
RWRWY

WYOMING REGIONAL WEATHER ROUNDUP
NATIONAL WEATHER SERVICE CHEYENNE WY
400 AM MDT SAT SEP 20 2014

NOTE:  "FAIR" INDICATES FEW OR NO CLOUDS BELOW 12,000 FEET
WITH NO SIGNIFICANT WEATHER AND/OR OBSTRUCTIONS TO VISIBILITY.

WYZ001-201100-
YELLOWSTONE NATIONAL PARK

CITY           SKY/WX    TMP DP  RH WIND       PRES   REMARKS
LK YELLOWSTONE   N/A     36  35  96 CALM      30.37R
W YELLOWSTONE  NOT AVBL

$$
WYZ002>013-054>058-071-098>099-201100-
NORTHERN WYOMING

CITY           SKY/WX    TMP DP  RH WIND       PRES   REMARKS
JACKSON        CLEAR     39  37  93 N6        30.30R WCI  35
CODY             N/A    N/A N/A N/A MISG        N/A
GREYBULL       CLEAR     53  47  79 SE3       30.10R
WORLAND        CLEAR     52  44  74 SW5       30.13R
SHERIDAN       CLEAR     50  44  80 CALM      30.10R
BUFFALO        PTCLDY    53  44  71 W7        30.16R
GILLETTE       CLEAR     55  46  71 W9        30.09R
HULETT         FAIR      54  45  71 MISG      30.09
NEWCASTLE      FAIR      54  43  66 N8        30.10

$$
WYZ014>020-022>026-101>103-201100-
CENTRAL WYOMING

CITY           SKY/WX    TMP DP  RH WIND       PRES   REMARKS
BIG PINEY      PTCLDY    39  33  79 CALM      30.31R
PINEDALE       MOSUNNY   39  36  87 NW9       30.31S WCI  33
DUBOIS         FAIR      43  34  70 NW13      30.30S
LANDER         CLEAR     54  35  48 W14       30.19R
RIVERTON       CLEAR     55  42  61 NE8       30.19R
CASPER         CLEAR     46  40  79 CALM      30.19R
DOUGLAS        CLEAR     49  43  80 NW5       30.17R

$$
WYZ021-027>030-104>119-201100-
SOUTHERN WYOMING

CITY           SKY/WX    TMP DP  RH WIND       PRES   REMARKS
EVANSTON       CLEAR     53  38  56 S6        30.30S
KEMMERER       MOSUNNY   41  36  81 CALM      30.31S
FORT BRIDGER   FAIR      54  38  55 SW3       30.32S
ROCK SPRINGS   PTCLDY    49  34  56 SW6       30.28R
DIXON          FAIR      42  37  82 E3        30.29R
RAWLINS        CLEAR     45  32  60 NE3       30.25R
SARATOGA       FAIR      41  34  75 CALM      30.26S
LARAMIE        CLEAR     43  37  79 CALM      30.26R
CHEYENNE       CLEAR     58  43  57 N14       30.19R
TORRINGTON     CLEAR     56  46  69 NW9       30.10R
PINE BLUFFS    FAIR      50  45  81 NW6       30.14R

$$


USA.gov is the U.S. government's official web portal to all federal, state and local government web resources and services.